,,PA_Meas_PMT16A,,PR_Meas_QMR101_102,,RH_Meas_QMH101,,SR_Meas_QMS101,,TA_Meas_QMH101,,GenWind,,GenWind,
time,status,PA,status,PR,status,RH,status,SR,status,TA,status,DirAvg,status,SpdAvg,
2009-11-04, 00:00:04,VALID,916.496,VALID,0,VALID,96.7869,VALID,0,VALID,20.8894,VALID,121,VALID,0.341797,
2009-11-04, 00:01:04,VALID,916.473,VALID,0,VALID,96.8326,VALID,0,VALID,20.8894,VALID,121,VALID,0.411719,
2009-11-04, 00:02:04,VALID,916.435,VALID,0,VALID,96.886,VALID,0,VALID,20.9073,VALID,121,VALID,0.338672,
2009-11-04, 00:03:04,VALID,916.399,VALID,0,VALID,96.8707,VALID,0,VALID,20.9284,VALID,121,VALID,0.207031,
2009-11-04, 00:04:04,VALID,916.369,VALID,0,VALID,96.9394,VALID,0,VALID,20.9674,VALID,121,VALID,0.186719,
2009-11-04, 00:05:04,VALID,916.314,VALID,0,VALID,96.9622,VALID,0,VALID,21.0064,VALID,121,VALID,0.369141,
2009-11-04, 00:06:04,VALID,916.273,VALID,0,VALID,96.886,VALID,0,VALID,20.9674,VALID,121,VALID,0.21875,
2009-11-04, 00:07:04,VALID,916.243,VALID,0,VALID,96.8784,VALID,0,VALID,20.9479,VALID,121,VALID,0.485547,
2009-11-04, 00:08:04,VALID,916.212,VALID,0,VALID,96.9012,VALID,0,VALID,20.9479,VALID,121,VALID,0.561719,
2009-11-04, 00:09:04,VALID,916.158,VALID,0,VALID,96.9394,VALID,0.107441,VALID,20.9674,VALID,121,VALID,0.493359,
2009-11-04, 00:10:04,VALID,916.153,VALID,0,VALID,96.9089,VALID,0,VALID,20.9463,VALID,121,VALID,0.479297,
2009-11-04, 00:11:04,VALID,916.113,VALID,0,VALID,96.9317,VALID,0,VALID,20.9479,VALID,121,VALID,0.222656,
2009-11-04, 00:12:04,VALID,916.058,VALID,0,VALID,96.9851,VALID,0,VALID,20.9869,VALID,121,VALID,0.284375,
2009-11-04, 00:13:04,VALID,916.059,VALID,0,VALID,97.0003,VALID,0,VALID,20.9869,VALID,121,VALID,0.121484,
2009-11-04, 00:14:04,VALID,916.022,VALID,0,VALID,97.0156,VALID,0,VALID,20.9869,VALID,121,VALID,0,
2009-11-04, 00:15:04,VALID,915.984,VALID,0,VALID,97.0232,VALID,0,VALID,21.0259,VALID,121,VALID,0.319922,
2009-11-04, 00:16:04,VALID,915.971,VALID,0,VALID,97.0461,VALID,0,VALID,21.0259,VALID,121,VALID,0.558203,
2009-11-04, 00:17:04,VALID,915.99,VALID,0,VALID,97.0537,VALID,0,VALID,21.0259,VALID,121,VALID,0.0722656,
2009-11-04, 00:18:04,VALID,915.995,VALID,0,VALID,97.0994,VALID,0,VALID,21.0649,VALID,121,VALID,0,
2009-11-04, 00:19:04,VALID,915.982,VALID,0,VALID,97.0842,VALID,0,VALID,21.0649,VALID,121,VALID,0.184766,
2009-11-04, 00:20:04,VALID,915.972,VALID,0,VALID,97.0308,VALID,0,VALID,21.0438,VALID,121,VALID,0.383203,
2009-11-04, 00:21:04,VALID,915.961,VALID,0,VALID,97.0003,VALID,0,VALID,21.0259,VALID,121,VALID,0.447656,
2009-11-04, 00:22:04,VALID,915.93,VALID,0,VALID,97.0232,VALID,0,VALID,20.9869,VALID,121,VALID,0.715234,
2009-11-04, 00:23:04,VALID,915.895,VALID,0,VALID,97.0156,VALID,0,VALID,20.9869,VALID,121,VALID,0.86875,
2009-11-04, 00:24:04,VALID,915.911,VALID,0,VALID,97.0385,VALID,0.107441,VALID,20.9674,VALID,121,VALID,0.587891,
2009-11-04, 00:25:04,VALID,915.887,VALID,0,VALID,97.0613,VALID,0,VALID,20.9479,VALID,121,VALID,0.246484,
2009-11-04, 00:26:04,VALID,915.86,VALID,0,VALID,97.0918,VALID,0,VALID,20.9674,VALID,121,VALID,0,
2009-11-04, 00:27:04,VALID,915.795,VALID,0,VALID,97.1452,VALID,0,VALID,21.0064,VALID,121,VALID,0.107422,
2009-11-04, 00:28:04,VALID,915.783,VALID,0,VALID,97.1071,VALID,0.107441,VALID,20.9869,VALID,121,VALID,0.427344,
2009-11-04, 00:29:04,VALID,915.76,VALID,0,VALID,97.069,VALID,0,VALID,20.9674,VALID,121,VALID,0.307031,
2009-11-04, 00:30:04,VALID,915.743,VALID,0,VALID,97.0918,VALID,0,VALID,20.9463,VALID,121,VALID,0.0722656,
2009-11-04, 00:31:05,VALID,915.731,VALID,0,VALID,97.1452,VALID,0,VALID,20.9658,VALID,121,VALID,0.046875,
2009-11-04, 00:32:05,VALID,915.749,VALID,0,VALID,97.1376,VALID,0,VALID,20.9869,VALID,121,VALID,0.653906,
2009-11-04, 00:33:05,VALID,915.707,VALID,0,VALID,97.1909,VALID,0.107441,VALID,21.0649,VALID,121,VALID,0.757031,
2009-11-04, 00:34:05,VALID,915.718,VALID,0,VALID,97.0308,VALID,0.107441,VALID,21.0064,VALID,121,VALID,0.605469,
2009-11-04, 00:35:05,VALID,915.688,VALID,0,VALID,97.0842,VALID,0,VALID,20.9674,VALID,121,VALID,0.436719,
2009-11-04, 00:36:05,VALID,915.632,VALID,0,VALID,97.0461,VALID,0,VALID,20.9073,VALID,121,VALID,0.203906,
2009-11-04, 00:37:05,VALID,915.612,VALID,0,VALID,97.1376,VALID,0.107441,VALID,20.9268,VALID,121,VALID,0,
2009-11-04, 00:38:05,VALID,915.591,VALID,0,VALID,97.1604,VALID,0,VALID,20.9479,VALID,121,VALID,0,
2009-11-04, 00:39:05,VALID,915.583,VALID,0,VALID,97.0918,VALID,0,VALID,20.9268,VALID,121,VALID,0,
2009-11-04, 00:40:05,VALID,915.561,VALID,0,VALID,97.0994,VALID,0.107441,VALID,20.9073,VALID,121,VALID,0.00390625,
2009-11-04, 00:41:05,VALID,915.511,VALID,0,VALID,97.0842,VALID,0,VALID,20.8894,VALID,121,VALID,0.423047,
2009-11-04, 00:42:05,VALID,915.512,VALID,0,VALID,97.0766,VALID,0.107441,VALID,20.8699,VALID,121,VALID,0,
2009-11-04, 00:43:05,VALID,915.469,VALID,0,VALID,97.1223,VALID,0,VALID,20.8699,VALID,121,VALID,0,
2009-11-04, 00:44:05,VALID,915.463,VALID,0,VALID,97.1528,VALID,0,VALID,20.8699,VALID,121,VALID,0,
2009-11-04, 00:45:05,VALID,915.412,VALID,0,VALID,97.1757,VALID,0,VALID,20.8504,VALID,121,VALID,0,
2009-11-04, 00:46:05,VALID,915.395,VALID,0,VALID,97.1604,VALID,0,VALID,20.8504,VALID,121,VALID,0,
2009-11-04, 00:47:05,VALID,915.405,VALID,0,VALID,97.2214,VALID,0,VALID,20.8699,VALID,121,VALID,0.144531,
2009-11-04, 00:48:05,VALID,915.397,VALID,0,VALID,97.2062,VALID,0.107441,VALID,20.9089,VALID,121,VALID,0.519531,
2009-11-04, 00:49:05,VALID,915.403,VALID,0,VALID,97.229,VALID,0,VALID,20.9073,VALID,121,VALID,0.59375,
2009-11-04, 00:50:05,VALID,915.374,VALID,0,VALID,97.1681,VALID,0,VALID,20.8894,VALID,121,VALID,0.285156,
2009-11-04, 00:51:05,VALID,915.338,VALID,0,VALID,97.1757,VALID,0,VALID,20.8699,VALID,121,VALID,0.527734,
2009-11-04, 00:52:05,VALID,915.282,VALID,0,VALID,97.1528,VALID,0.107441,VALID,20.8293,VALID,121,VALID,0.780078,
2009-11-04, 00:53:05,VALID,915.263,VALID,0,VALID,97.1604,VALID,0.107441,VALID,20.8504,VALID,121,VALID,0.385938,
2009-11-04, 00:54:05,VALID,915.27,VALID,0,VALID,97.2443,VALID,0,VALID,20.8699,VALID,121,VALID,0.643359,
2009-11-04, 00:55:05,VALID,915.234,VALID,0,VALID,97.2595,VALID,0,VALID,20.8894,VALID,121,VALID,0.921484,
2009-11-04, 00:56:05,VALID,915.229,VALID,0,VALID,97.2367,VALID,0,VALID,20.9284,VALID,121,VALID,0.338281,
2009-11-04, 00:57:05,VALID,915.196,VALID,0,VALID,97.2595,VALID,0,VALID,20.9268,VALID,121,VALID,0,
2009-11-04, 00:58:05,VALID,915.205,VALID,0,VALID,97.2519,VALID,0,VALID,20.9674,VALID,121,VALID,0,
2009-11-04, 00:59:05,VALID,915.188,VALID,0,VALID,97.2672,VALID,0,VALID,20.9674,VALID,121,VALID,0,
2009-11-04, 01:00:05,VALID,915.141,VALID,0,VALID,97.2138,VALID,0,VALID,20.9284,VALID,121,VALID,0.00078125,
2009-11-04, 01:01:05,VALID,915.13,VALID,0,VALID,97.1757,VALID,0,VALID,20.8894,VALID,121,VALID,0.00195313,
2009-11-04, 01:02:05,VALID,915.112,VALID,0,VALID,97.1909,VALID,0,VALID,20.8699,VALID,121,VALID,0.344922,
2009-11-04, 01:03:05,VALID,915.092,VALID,0,VALID,97.1223,VALID,0,VALID,20.8309,VALID,121,VALID,0.604297,
2009-11-04, 01:04:05,VALID,915.076,VALID,0,VALID,97.1376,VALID,0.107441,VALID,20.7513,VALID,121,VALID,0.469531,
2009-11-04, 01:05:05,VALID,915.044,VALID,0,VALID,97.1604,VALID,0,VALID,20.7723,VALID,121,VALID,0.458594,
2009-11-04, 01:06:05,VALID,915.036,VALID,0,VALID,97.2595,VALID,0,VALID,20.8113,VALID,121,VALID,0.215234,
2009-11-04, 01:07:05,VALID,915.002,VALID,0,VALID,97.2214,VALID,0.107441,VALID,20.7918,VALID,121,VALID,0.655078,
2009-11-04, 01:08:05,VALID,914.974,VALID,0,VALID,97.2519,VALID,0,VALID,20.8113,VALID,121,VALID,0.867969,
2009-11-04, 01:09:05,VALID,914.99,VALID,0,VALID,97.2519,VALID,0.107441,VALID,20.8309,VALID,121,VALID,0.496094,
2009-11-04, 01:10:05,VALID,914.969,VALID,0,VALID,97.1909,VALID,0,VALID,20.7903,VALID,121,VALID,0.596484,
2009-11-04, 01:11:05,VALID,914.936,VALID,0,VALID,97.1604,VALID,0.107441,VALID,20.7528,VALID,121,VALID,0.457422,
2009-11-04, 01:12:05,VALID,914.922,VALID,0,VALID,97.1909,VALID,0,VALID,20.7318,VALID,121,VALID,0.533594,
2009-11-04, 01:13:05,VALID,914.929,VALID,0,VALID,97.1757,VALID,0,VALID,20.7333,VALID,121,VALID,0.961719,
2009-11-04, 01:14:05,VALID,914.917,VALID,0,VALID,97.1986,VALID,0,VALID,20.7333,VALID,121,VALID,0.742969,
2009-11-04, 01:15:05,VALID,914.897,VALID,0,VALID,97.2138,VALID,0,VALID,20.7528,VALID,121,VALID,0.928516,
2009-11-04, 01:16:05,VALID,914.83,VALID,0,VALID,97.2519,VALID,0,VALID,20.7528,VALID,121,VALID,0.730469,
2009-11-04, 01:17:05,VALID,914.82,VALID,0,VALID,97.2443,VALID,0,VALID,20.7723,VALID,120,VALID,1.28867,
2009-11-04, 01:18:05,VALID,914.775,VALID,0,VALID,97.2214,VALID,0,VALID,20.7723,VALID,109,VALID,1.29258,
2009-11-04, 01:19:05,VALID,914.722,VALID,0,VALID,97.2672,VALID,0.107441,VALID,20.8129,VALID,107,VALID,0.832422,
2009-11-04, 01:20:05,VALID,914.718,VALID,0,VALID,97.2214,VALID,0,VALID,20.8113,VALID,107,VALID,0.982813,
2009-11-04, 01:21:05,VALID,914.716,VALID,0,VALID,97.1681,VALID,0,VALID,20.7723,VALID,107,VALID,1.59414,
2009-11-04, 01:22:05,VALID,914.699,VALID,0,VALID,97.1376,VALID,0,VALID,20.8129,VALID,106,VALID,1.17188,
2009-11-04, 01:23:05,VALID,914.719,VALID,0,VALID,97.1299,VALID,0,VALID,20.8113,VALID,134,VALID,1.14844,
2009-11-04, 01:24:05,VALID,914.74,VALID,0.2,VALID,97.0918,VALID,0,VALID,20.8309,VALID,133,VALID,1.46328,
2009-11-04, 01:25:05,VALID,914.765,VALID,0,VALID,97.0385,VALID,0,VALID,20.8309,VALID,108,VALID,1.42227,
2009-11-04, 01:26:05,VALID,914.75,VALID,0,VALID,97.0385,VALID,0,VALID,20.8504,VALID,169,VALID,0.826563,
2009-11-04, 01:27:05,VALID,914.783,VALID,0,VALID,97.0385,VALID,0,VALID,20.8504,VALID,130,VALID,0.844922,
2009-11-04, 01:28:05,VALID,914.802,VALID,0,VALID,96.9698,VALID,0,VALID,20.8309,VALID,108,VALID,1.73789,
2009-11-04, 01:29:05,VALID,914.81,VALID,0,VALID,96.9622,VALID,0.107441,VALID,20.8504,VALID,97,VALID,0.832812,
2009-11-04, 01:30:05,VALID,914.83,VALID,0,VALID,96.9927,VALID,0,VALID,20.8699,VALID,97,VALID,0.646484,
2009-11-04, 01:31:05,VALID,914.837,VALID,0,VALID,96.9622,VALID,0,VALID,20.8699,VALID,97,VALID,0.4875,
2009-11-04, 01:32:05,VALID,914.852,VALID,0,VALID,96.9546,VALID,0,VALID,20.8699,VALID,97,VALID,0.612891,
2009-11-04, 01:33:05,VALID,914.888,VALID,0,VALID,96.9317,VALID,0,VALID,20.8699,VALID,97,VALID,0.882422,
2009-11-04, 01:34:05,VALID,914.924,VALID,0,VALID,96.9089,VALID,0,VALID,20.8699,VALID,142,VALID,1.26875,
2009-11-04, 01:35:05,VALID,914.899,VALID,0,VALID,96.9241,VALID,0,VALID,20.8488,VALID,168,VALID,0.827344,
2009-11-04, 01:36:05,VALID,914.885,VALID,0,VALID,96.8631,VALID,0,VALID,20.8714,VALID,168,VALID,1.33555,
2009-11-04, 01:37:05,VALID,914.854,VALID,0,VALID,96.9241,VALID,0,VALID,20.8699,VALID,168,VALID,0.633594,
2009-11-04, 01:38:05,VALID,914.877,VALID,0,VALID,96.8784,VALID,0,VALID,20.8504,VALID,168,VALID,0.982031,
2009-11-04, 01:39:05,VALID,914.845,VALID,0,VALID,96.8707,VALID,0,VALID,20.8504,VALID,154,VALID,1.21563,
2009-11-04, 01:40:05,VALID,914.836,VALID,0,VALID,96.8479,VALID,0,VALID,20.8309,VALID,144,VALID,1.3168,
2009-11-04, 01:41:05,VALID,914.816,VALID,0,VALID,96.8326,VALID,0,VALID,20.8309,VALID,147,VALID,0.973047,
2009-11-04, 01:42:05,VALID,914.782,VALID,0,VALID,96.8479,VALID,0,VALID,20.8519,VALID,145,VALID,1.05703,
2009-11-04, 01:43:05,VALID,914.79,VALID,0,VALID,96.825,VALID,0,VALID,20.8309,VALID,120,VALID,1.4582,
2009-11-04, 01:44:05,VALID,914.812,VALID,0,VALID,96.8555,VALID,0,VALID,20.8504,VALID,121,VALID,0.959375,
2009-11-04, 01:45:05,VALID,914.845,VALID,0,VALID,96.8174,VALID,0,VALID,20.8309,VALID,120,VALID,1.19414,
2009-11-04, 01:46:05,VALID,914.894,VALID,0,VALID,96.7793,VALID,0,VALID,20.8504,VALID,145,VALID,1.3875,
2009-11-04, 01:47:05,VALID,914.918,VALID,0,VALID,96.7411,VALID,0,VALID,20.8504,VALID,157,VALID,1.69961,
2009-11-04, 01:48:05,VALID,914.943,VALID,0,VALID,96.7335,VALID,0,VALID,20.8699,VALID,161,VALID,0.558203,
2009-11-04, 01:49:05,VALID,914.995,VALID,0,VALID,96.7793,VALID,0,VALID,20.8894,VALID,171,VALID,0.971875,
2009-11-04, 01:50:05,VALID,915.061,VALID,0,VALID,96.7183,VALID,0,VALID,20.8894,VALID,189,VALID,1.22969,
2009-11-04, 01:51:05,VALID,915.074,VALID,0,VALID,96.6954,VALID,0,VALID,20.8878,VALID,192,VALID,1.19883,
2009-11-04, 01:52:05,VALID,915.065,VALID,0,VALID,96.703,VALID,0,VALID,20.9089,VALID,192,VALID,1.73984,
2009-11-04, 01:53:05,VALID,915.018,VALID,0,VALID,96.7107,VALID,0,VALID,20.8894,VALID,196,VALID,1.77422,
2009-11-04, 01:54:05,VALID,914.985,VALID,0,VALID,96.7411,VALID,0,VALID,20.8699,VALID,199,VALID,1.18438,
2009-11-04, 01:55:05,VALID,914.942,VALID,0,VALID,96.7793,VALID,0,VALID,20.8894,VALID,199,VALID,1.37812,
2009-11-04, 01:56:05,VALID,914.852,VALID,0,VALID,96.7564,VALID,0,VALID,20.8699,VALID,199,VALID,1.44922,
2009-11-04, 01:57:05,VALID,914.84,VALID,0,VALID,96.8403,VALID,0,VALID,20.8699,VALID,216,VALID,1.03359,
2009-11-04, 01:58:05,VALID,914.814,VALID,0,VALID,96.8784,VALID,0,VALID,20.8699,VALID,216,VALID,0.475781,
2009-11-04, 01:59:05,VALID,914.807,VALID,0,VALID,96.8403,VALID,0,VALID,20.8699,VALID,216,VALID,0.894922,
2009-11-04, 02:00:05,VALID,914.759,VALID,0,VALID,96.8555,VALID,0,VALID,20.8309,VALID,205,VALID,0.899219,
2009-11-04, 02:01:05,VALID,914.778,VALID,0,VALID,96.8936,VALID,0,VALID,20.8504,VALID,160,VALID,0.719922,
2009-11-04, 02:02:05,VALID,914.797,VALID,0,VALID,96.9241,VALID,0,VALID,20.8309,VALID,134,VALID,0.502344,
2009-11-04, 02:03:05,VALID,914.801,VALID,0,VALID,96.9698,VALID,0,VALID,20.8504,VALID,134,VALID,0.430078,
2009-11-04, 02:04:05,VALID,914.796,VALID,0,VALID,96.9622,VALID,0,VALID,20.8699,VALID,169,VALID,1.05156,
2009-11-04, 02:05:05,VALID,914.804,VALID,0,VALID,96.9089,VALID,0,VALID,20.8309,VALID,126,VALID,1.65313,
2009-11-04, 02:06:05,VALID,914.813,VALID,0,VALID,96.8707,VALID,0,VALID,20.8309,VALID,143,VALID,1.32266,
2009-11-04, 02:07:05,VALID,914.786,VALID,0,VALID,96.8326,VALID,0,VALID,20.8309,VALID,110,VALID,0.887109,
2009-11-04, 02:08:05,VALID,914.744,VALID,0,VALID,96.8098,VALID,0,VALID,20.8309,VALID,143,VALID,0.990625,
2009-11-04, 02:09:05,VALID,914.772,VALID,0,VALID,96.8098,VALID,0.107441,VALID,20.8293,VALID,119,VALID,0.809375,
2009-11-04, 02:10:05,VALID,914.797,VALID,0,VALID,96.8326,VALID,0.107441,VALID,20.8098,VALID,128,VALID,0.989062,
2009-11-04, 02:11:05,VALID,914.741,VALID,0.2,VALID,96.7945,VALID,0.107441,VALID,20.8098,VALID,151,VALID,1.52383,
2009-11-04, 02:12:05,VALID,914.712,VALID,0,VALID,96.8174,VALID,0,VALID,20.8113,VALID,148,VALID,0.651172,
2009-11-04, 02:13:05,VALID,914.694,VALID,0,VALID,96.8707,VALID,0.214882,VALID,20.8098,VALID,148,VALID,0.411328,
2009-11-04, 02:14:05,VALID,914.747,VALID,0,VALID,96.886,VALID,0.107441,VALID,20.8098,VALID,141,VALID,0.303125,
2009-11-04, 02:15:05,VALID,914.756,VALID,0,VALID,96.8784,VALID,0.107441,VALID,20.8098,VALID,141,VALID,1.01914,
2009-11-04, 02:16:05,VALID,914.793,VALID,0,VALID,96.8631,VALID,0.107441,VALID,20.8113,VALID,165,VALID,1.46836,
2009-11-04, 02:17:05,VALID,914.818,VALID,0,VALID,96.8555,VALID,0.107441,VALID,20.7903,VALID,126,VALID,1.25039,
2009-11-04, 02:18:05,VALID,914.85,VALID,0,VALID,96.8707,VALID,0.107441,VALID,20.7918,VALID,143,VALID,1.46836,
2009-11-04, 02:19:05,VALID,914.861,VALID,0,VALID,96.8936,VALID,0.107441,VALID,20.7903,VALID,150,VALID,0.919922,
2009-11-04, 02:20:05,VALID,914.846,VALID,0,VALID,96.9012,VALID,0.107441,VALID,20.7903,VALID,187,VALID,1.44961,
2009-11-04, 02:21:05,VALID,914.814,VALID,0,VALID,96.8631,VALID,0.107441,VALID,20.7903,VALID,176,VALID,1.56797,
2009-11-04, 02:22:05,VALID,914.807,VALID,0,VALID,96.8631,VALID,0.107441,VALID,20.7708,VALID,176,VALID,0.8625,
2009-11-04, 02:23:05,VALID,914.842,VALID,0,VALID,96.8784,VALID,0.107441,VALID,20.7918,VALID,176,VALID,1.74688,
2009-11-04, 02:24:05,VALID,914.84,VALID,0,VALID,96.8479,VALID,0.107441,VALID,20.7318,VALID,144,VALID,1.90078,
2009-11-04, 02:25:05,VALID,914.816,VALID,0.2,VALID,96.9012,VALID,0.107441,VALID,20.7513,VALID,200,VALID,0.966406,
2009-11-04, 02:26:05,VALID,914.746,VALID,0.4,VALID,96.825,VALID,0,VALID,20.7318,VALID,142,VALID,1.10352,
2009-11-04, 02:27:05,VALID,914.714,VALID,0.2,VALID,96.9165,VALID,0.107441,VALID,20.7513,VALID,26,VALID,1.20078,
2009-11-04, 02:28:05,VALID,914.72,VALID,0.2,VALID,96.7259,VALID,0.107441,VALID,20.6928,VALID,85,VALID,1.87422,
2009-11-04, 02:29:05,VALID,914.725,VALID,0.2,VALID,96.7335,VALID,0.107441,VALID,20.6733,VALID,129,VALID,1.85938,
2009-11-04, 02:30:05,VALID,914.71,VALID,0.2,VALID,96.764,VALID,0.107441,VALID,20.6733,VALID,131,VALID,0.838281,
2009-11-04, 02:31:05,VALID,914.754,VALID,0,VALID,96.7411,VALID,0.107441,VALID,20.6733,VALID,124,VALID,2.07344,
2009-11-04, 02:32:05,VALID,914.794,VALID,0.2,VALID,96.7793,VALID,0.107441,VALID,20.6928,VALID,136,VALID,0.879687,
2009-11-04, 02:33:05,VALID,914.803,VALID,0,VALID,96.7183,VALID,0.107441,VALID,20.6943,VALID,107,VALID,1.07422,
2009-11-04, 02:34:05,VALID,914.828,VALID,0,VALID,96.7564,VALID,0,VALID,20.6943,VALID,106,VALID,0.769922,
2009-11-04, 02:35:05,VALID,914.814,VALID,0.2,VALID,96.7183,VALID,0.107441,VALID,20.6537,VALID,99,VALID,2.31758,
2009-11-04, 02:36:05,VALID,914.844,VALID,0,VALID,96.6954,VALID,0.107441,VALID,20.6537,VALID,108,VALID,2.5832,
2009-11-04, 02:37:05,VALID,914.848,VALID,0.2,VALID,96.642,VALID,0.107441,VALID,20.6553,VALID,121,VALID,2.16836,
2009-11-04, 02:38:05,VALID,914.826,VALID,0,VALID,96.5201,VALID,0.107441,VALID,20.6342,VALID,106,VALID,2.10195,
2009-11-04, 02:39:05,VALID,914.808,VALID,0,VALID,96.4133,VALID,0.107441,VALID,20.6748,VALID,77,VALID,2.11445,
2009-11-04, 02:40:05,VALID,914.78,VALID,0,VALID,96.3066,VALID,0.107441,VALID,20.6342,VALID,74,VALID,1.79258,
2009-11-04, 02:41:05,VALID,914.78,VALID,0,VALID,96.1236,VALID,0.107441,VALID,20.6358,VALID,56,VALID,2.24219,
2009-11-04, 02:42:05,VALID,914.731,VALID,0.2,VALID,96.0169,VALID,0,VALID,20.6553,VALID,16,VALID,1.39141,
2009-11-04, 02:43:05,VALID,914.669,VALID,0.4,VALID,96.0703,VALID,0.107441,VALID,20.6553,VALID,14,VALID,1.18203,
2009-11-04, 02:44:05,VALID,914.683,VALID,0.4,VALID,96.2685,VALID,0,VALID,20.6342,VALID,14,VALID,1.0082,
2009-11-04, 02:45:05,VALID,914.637,VALID,0.2,VALID,96.3142,VALID,0.107441,VALID,20.6553,VALID,14,VALID,0.763672,
2009-11-04, 02:46:05,VALID,914.625,VALID,0,VALID,96.4057,VALID,0.107441,VALID,20.6358,VALID,14,VALID,1.09453,
2009-11-04, 02:47:05,VALID,914.567,VALID,0.2,VALID,96.3447,VALID,0.107441,VALID,20.5773,VALID,79,VALID,1.71563,
2009-11-04, 02:48:05,VALID,914.498,VALID,0,VALID,96.1313,VALID,0,VALID,20.5188,VALID,99,VALID,1.31133,
2009-11-04, 02:49:05,VALID,914.532,VALID,0.2,VALID,96.0703,VALID,0.107441,VALID,20.5188,VALID,55,VALID,2.46094,
2009-11-04, 02:50:05,VALID,914.51,VALID,0,VALID,95.8416,VALID,0.107441,VALID,20.4603,VALID,93,VALID,1.1082,
2009-11-04, 02:51:05,VALID,914.512,VALID,0.2,VALID,95.7958,VALID,0,VALID,20.4603,VALID,96,VALID,0.963281,
2009-11-04, 02:52:05,VALID,914.549,VALID,0,VALID,95.8416,VALID,0,VALID,20.4408,VALID,96,VALID,1.20156,
2009-11-04, 02:53:05,VALID,914.55,VALID,0,VALID,95.8416,VALID,0,VALID,20.4002,VALID,96,VALID,1.24648,
2009-11-04, 02:54:05,VALID,914.57,VALID,0.2,VALID,95.9178,VALID,0.107441,VALID,20.3807,VALID,96,VALID,1.31133,
2009-11-04, 02:55:05,VALID,914.604,VALID,0,VALID,95.6815,VALID,0.107441,VALID,20.3612,VALID,58,VALID,2.24961,
2009-11-04, 02:56:05,VALID,914.6,VALID,0.2,VALID,95.4299,VALID,0.107441,VALID,20.3628,VALID,69,VALID,2.40313,
2009-11-04, 02:57:05,VALID,914.595,VALID,0,VALID,95.5138,VALID,0,VALID,20.3823,VALID,120,VALID,1.14258,
2009-11-04, 02:58:05,VALID,914.609,VALID,0,VALID,95.9102,VALID,0,VALID,20.4018,VALID,120,VALID,0.722266,
2009-11-04, 02:59:05,VALID,914.589,VALID,0.2,VALID,95.834,VALID,0.107441,VALID,20.3222,VALID,125,VALID,1.0582,
2009-11-04, 03:00:05,VALID,914.588,VALID,0,VALID,96.1389,VALID,0.107441,VALID,20.3417,VALID,127,VALID,0.797656,
2009-11-04, 03:01:05,VALID,914.574,VALID,0,VALID,95.773,VALID,0.107441,VALID,20.3043,VALID,86,VALID,1.11133,
2009-11-04, 03:02:05,VALID,914.565,VALID,0,VALID,95.9559,VALID,0,VALID,20.3027,VALID,194,VALID,0.512109,
2009-11-04, 03:03:05,VALID,914.557,VALID,0.2,VALID,96.0474,VALID,0.107441,VALID,20.3238,VALID,194,VALID,0.510938,
2009-11-04, 03:04:05,VALID,914.567,VALID,0,VALID,96.0855,VALID,0.107441,VALID,20.2832,VALID,194,VALID,0.476172,
2009-11-04, 03:05:05,VALID,914.573,VALID,0,VALID,96.0474,VALID,0.107441,VALID,20.2832,VALID,194,VALID,0.390234,
2009-11-04, 03:06:05,VALID,914.575,VALID,0,VALID,95.6586,VALID,0,VALID,20.2068,VALID,111,VALID,1.08594,
2009-11-04, 03:07:05,VALID,914.601,VALID,0,VALID,95.8492,VALID,0.107441,VALID,20.2263,VALID,111,VALID,0.263672,
2009-11-04, 03:08:05,VALID,914.568,VALID,0,VALID,95.8721,VALID,0,VALID,20.2068,VALID,111,VALID,0.660547,
2009-11-04, 03:09:05,VALID,914.572,VALID,0,VALID,95.8873,VALID,0,VALID,20.1678,VALID,111,VALID,0.260156,
2009-11-04, 03:10:05,VALID,914.543,VALID,0,VALID,95.5748,VALID,0.107441,VALID,20.1288,VALID,145,VALID,0.979297,
2009-11-04, 03:11:05,VALID,914.56,VALID,0,VALID,95.6891,VALID,0,VALID,20.1483,VALID,144,VALID,0.578906,
2009-11-04, 03:12:05,VALID,914.558,VALID,0,VALID,95.8187,VALID,0.107441,VALID,20.1678,VALID,144,VALID,0.5375,
2009-11-04, 03:13:05,VALID,914.57,VALID,0.2,VALID,95.7806,VALID,0,VALID,20.1483,VALID,20,VALID,1.37539,
2009-11-04, 03:14:05,VALID,914.52,VALID,0,VALID,95.6891,VALID,0.107441,VALID,20.1678,VALID,15,VALID,1.05,
2009-11-04, 03:15:04,VALID,914.526,VALID,0,VALID,95.7044,VALID,0,VALID,20.1483,VALID,15,VALID,0.860547,
2009-11-04, 03:16:04,VALID,914.477,VALID,0,VALID,95.8873,VALID,0,VALID,20.1272,VALID,15,VALID,0.436328,
2009-11-04, 03:17:04,VALID,914.519,VALID,0,VALID,95.6739,VALID,0,VALID,20.1288,VALID,78,VALID,1.22383,
2009-11-04, 03:18:04,VALID,914.476,VALID,0.2,VALID,95.6586,VALID,0.107441,VALID,20.1093,VALID,79,VALID,0.879297,
2009-11-04, 03:19:04,VALID,914.467,VALID,0,VALID,95.7654,VALID,0,VALID,20.1288,VALID,83,VALID,2.29453,
2009-11-04, 03:20:04,VALID,914.519,VALID,0,VALID,95.7882,VALID,0,VALID,20.1483,VALID,37,VALID,0.540625,
2009-11-04, 03:21:04,VALID,914.485,VALID,0,VALID,95.4833,VALID,0,VALID,20.1483,VALID,139,VALID,1.59492,
2009-11-04, 03:22:04,VALID,914.524,VALID,0,VALID,95.247,VALID,0,VALID,20.1483,VALID,126,VALID,1.84531,
2009-11-04, 03:23:04,VALID,914.528,VALID,0,VALID,95.3842,VALID,0,VALID,20.1873,VALID,153,VALID,0.902734,
2009-11-04, 03:24:04,VALID,914.539,VALID,0,VALID,95.4223,VALID,0,VALID,20.1873,VALID,153,VALID,1.30508,
2009-11-04, 03:25:04,VALID,914.533,VALID,0,VALID,95.6662,VALID,0,VALID,20.2083,VALID,153,VALID,0.891797,
2009-11-04, 03:26:04,VALID,914.491,VALID,0,VALID,95.8568,VALID,0,VALID,20.1678,VALID,153,VALID,0.679688,
2009-11-04, 03:27:04,VALID,914.465,VALID,0,VALID,96.0932,VALID,0,VALID,20.2083,VALID,153,VALID,0.435547,
2009-11-04, 03:28:04,VALID,914.462,VALID,0,VALID,96.3371,VALID,0.107441,VALID,20.1678,VALID,153,VALID,0.423828,
2009-11-04, 03:29:04,VALID,914.492,VALID,0,VALID,96.4972,VALID,0,VALID,20.1873,VALID,153,VALID,0.376953,
2009-11-04, 03:30:04,VALID,914.488,VALID,0,VALID,96.6268,VALID,0.107441,VALID,20.2068,VALID,153,VALID,0.158594,
2009-11-04, 03:31:04,VALID,914.463,VALID,0,VALID,96.7335,VALID,0.107441,VALID,20.2458,VALID,153,VALID,0.189063,
2009-11-04, 03:32:04,VALID,914.46,VALID,0,VALID,96.7107,VALID,0,VALID,20.2458,VALID,153,VALID,0.778516,
2009-11-04, 03:33:04,VALID,914.49,VALID,0,VALID,96.6649,VALID,0.107441,VALID,20.2458,VALID,153,VALID,0.635547,
2009-11-04, 03:34:04,VALID,914.474,VALID,0,VALID,96.6725,VALID,0,VALID,20.2247,VALID,153,VALID,0.0429688,
2009-11-04, 03:35:04,VALID,914.51,VALID,0.2,VALID,96.703,VALID,0,VALID,20.2458,VALID,153,VALID,0.384766,
2009-11-04, 03:36:04,VALID,914.499,VALID,0,VALID,96.7564,VALID,0.107441,VALID,20.2653,VALID,153,VALID,0.135156,
2009-11-04, 03:37:04,VALID,914.54,VALID,0,VALID,96.6878,VALID,0.107441,VALID,20.2653,VALID,153,VALID,0.814453,
2009-11-04, 03:38:04,VALID,914.516,VALID,0,VALID,96.6192,VALID,0.107441,VALID,20.2653,VALID,153,VALID,0.495313,
2009-11-04, 03:39:04,VALID,914.541,VALID,0,VALID,96.5658,VALID,0.107441,VALID,20.2653,VALID,153,VALID,0.596875,
2009-11-04, 03:40:04,VALID,914.502,VALID,0,VALID,96.5201,VALID,0.107441,VALID,20.3043,VALID,165,VALID,0.787109,